| time (UTC) | temp C | wind direction | speed KPH | gust KPH | rain 1hr cm | rain 24hr cm | rain mn cm | humidity % | barometer mb |
| 20260904050120 | 17 | 0 | 0.0 | 1.6 | 0.00 | 0.94 | 0.00 | 78 | 1012.0 |
| 20260904044559 | 18 | 121 | 0.0 | 1.6 | 0.00 | 0.94 | 0.00 | 78 | 1012.2 |
| 20260904043103 | 18 | 0 | 0.0 | 1.6 | 0.00 | 0.94 | 0.00 | 78 | 1012.4 |
| 20260904041612 | 18 | 0 | 0.0 | 1.6 | 0.00 | 0.94 | 0.00 | 78 | 1012.5 |
| 20260904040057 | 18 | 0 | 0.0 | 1.6 | 0.00 | 0.94 | 0.00 | 78 | 1012.7 |
| 20260904034614 | 18 | 0 | 0.0 | 1.6 | 0.00 | 0.94 | 0.94 | 78 | 1012.8 |
| 20260904033049 | 18 | 0 | 0.0 | 1.6 | 0.00 | 0.94 | 0.94 | 78 | 1013.0 |
| 20260904031549 | 17 | 0 | 0.0 | 1.6 | 0.00 | 0.94 | 0.94 | 78 | 1013.0 |
| 20260904030056 | 17 | 0 | 0.0 | 0.0 | 0.00 | 0.94 | 0.94 | 80 | 1013.1 |
| 20260904024554 | 17 | 0 | 0.0 | 1.6 | 0.00 | 0.94 | 0.94 | 80 | 1013.0 |
| 20260904023052 | 17 | 0 | 0.0 | 1.6 | 0.00 | 0.94 | 0.94 | 80 | 1012.9 |
| 20260904021547 | 18 | 0 | 0.0 | 0.0 | 0.00 | 0.94 | 0.94 | 81 | 1013.0 |
| 20260904020049 | 18 | 0 | 0.0 | 1.6 | 0.00 | 0.94 | 0.94 | 81 | 1013.1 |
| 20260904014601 | 18 | 0 | 0.0 | 0.0 | 0.00 | 0.94 | 0.94 | 81 | 1013.1 |
| 20260904013056 | 18 | 0 | 0.0 | 1.6 | 0.00 | 0.94 | 0.94 | 82 | 1013.3 |
| 20260904011601 | 18 | 0 | 0.0 | 1.6 | 0.00 | 0.94 | 0.94 | 82 | 1013.5 |
| 20260904010049 | 18 | 0 | 0.0 | 1.6 | 0.00 | 0.94 | 0.94 | 82 | 1013.3 |
| 20260904004554 | 18 | 0 | 0.0 | 0.0 | 0.00 | 0.94 | 0.94 | 83 | 1013.2 |
| 20260904003052 | 19 | 0 | 0.0 | 1.6 | 0.00 | 0.94 | 0.94 | 83 | 1012.9 |
| 20260904001551 | 19 | 0 | 0.0 | 1.6 | 0.00 | 0.94 | 0.94 | 84 | 1012.8 |
| 20260903234556 | 20 | 0 | 0.0 | 1.6 | 0.00 | 0.94 | 0.94 | 85 | 1012.3 |
| 20260903233052 | 20 | 0 | 0.0 | 1.6 | 0.00 | 0.94 | 0.94 | 85 | 1012.4 |
| 20260903231604 | 21 | 0 | 0.0 | 1.6 | 0.00 | 0.94 | 0.94 | 85 | 1012.5 |
| 20260903230052 | 21 | 0 | 0.0 | 0.0 | 0.00 | 0.94 | 0.94 | 84 | 1012.3 |
| 20260903224600 | 22 | 0 | 0.0 | 1.6 | 0.00 | 0.94 | 0.94 | 84 | 1012.2 |
| 20260903223112 | 22 | 0 | 0.0 | 1.6 | 0.00 | 0.94 | 0.94 | 83 | 1012.9 |
| 20260903221556 | 22 | 0 | 0.0 | 1.6 | 0.00 | 0.94 | 0.94 | 83 | 1012.9 |
| 20260903220104 | 23 | 0 | 0.0 | 1.6 | 0.00 | 0.94 | 0.94 | 82 | 1012.8 |
| 20260903214553 | 22 | 0 | 0.0 | 1.6 | 0.00 | 0.94 | 0.94 | 82 | 1012.7 |
| 20260903213055 | 22 | 0 | 0.0 | 1.6 | 0.00 | 0.94 | 0.94 | 81 | 1012.7 |
| 20260903211558 | 22 | 0 | 0.0 | 1.6 | 0.00 | 0.94 | 0.94 | 82 | 1012.6 |
| 20260903210055 | 22 | 0 | 1.6 | 3.2 | 0.00 | 0.94 | 0.94 | 81 | 1012.6 |
| 20260903204602 | 23 | 121 | 0.0 | 3.2 | 0.00 | 0.94 | 0.94 | 80 | 1012.7 |
| 20260903203055 | 22 | 121 | 0.0 | 1.6 | 0.00 | 0.94 | 0.94 | 82 | 1012.8 |
| 20260903201554 | 22 | 0 | 0.0 | 3.2 | 0.00 | 0.94 | 0.94 | 81 | 1012.8 |
| 20260903200051 | 22 | 121 | 0.0 | 1.6 | 0.00 | 0.94 | 0.94 | 81 | 1013.1 |
| 20260903194552 | 22 | 0 | 0.0 | 3.2 | 0.00 | 0.94 | 0.94 | 82 | 1013.2 |
| 20260903193104 | 22 | 122 | 0.0 | 4.8 | 0.00 | 0.94 | 0.94 | 81 | 1013.2 |
| 20260903191601 | 21 | 0 | 0.0 | 3.2 | 0.00 | 0.94 | 0.94 | 83 | 1013.2 |
| 20260903190054 | 21 | 0 | 0.0 | 1.6 | 0.00 | 0.94 | 0.94 | 84 | 1013.7 |
| 20260903184552 | 21 | 122 | 1.6 | 3.2 | 0.00 | 0.94 | 0.94 | 84 | 1013.9 |
| 20260903183116 | 20 | 0 | 0.0 | 1.6 | 0.00 | 0.94 | 0.94 | 85 | 1013.8 |
| 20260903181612 | 20 | 0 | 0.0 | 1.6 | 0.00 | 0.94 | 0.94 | 85 | 1014.2 |
| 20260903180051 | 20 | 122 | 0.0 | 3.2 | 0.00 | 0.94 | 0.94 | 85 | 1014.3 |
| 20260903174547 | 20 | 132 | 0.0 | 3.2 | 0.00 | 0.94 | 0.94 | 85 | 1014.5 |
| 20260903173107 | 20 | 0 | 0.0 | 3.2 | 0.00 | 0.94 | 0.94 | 85 | 1014.3 |
| 20260903171559 | 20 | 0 | 0.0 | 4.8 | 0.00 | 0.94 | 0.94 | 85 | 1014.1 |
| 20260903170050 | 20 | 0 | 0.0 | 4.8 | 0.00 | 0.94 | 0.94 | 84 | 1014.2 |
| 20260903164559 | 19 | 0 | 0.0 | 3.2 | 0.00 | 0.94 | 0.94 | 84 | 1014.3 |
| 20260903163056 | 19 | 0 | 0.0 | 3.2 | 0.00 | 0.94 | 0.94 | 82 | 1014.3 |
| 20260903161609 | 19 | 0 | 0.0 | 4.8 | 0.00 | 0.94 | 0.94 | 81 | 1014.2 |
| 20260903160059 | 19 | 0 | 0.0 | 4.8 | 0.00 | 0.94 | 0.94 | 80 | 1014.4 |
| 20260903154553 | 18 | 0 | 0.0 | 1.6 | 0.00 | 0.94 | 0.94 | 80 | 1014.5 |
| 20260903153054 | 18 | 293 | 0.0 | 1.6 | 0.00 | 0.94 | 0.94 | 80 | 1014.8 |
| 20260903151551 | 18 | 0 | 0.0 | 3.2 | 0.00 | 0.94 | 0.94 | 78 | 1014.9 |
| 20260903150058 | 18 | 294 | 0.0 | 3.2 | 0.00 | 0.94 | 0.94 | 77 | 1014.8 |
| 20260903144558 | 18 | 0 | 0.0 | 1.6 | 0.00 | 0.94 | 0.94 | 78 | 1015.1 |
| 20260903143050 | 18 | 0 | 0.0 | 3.2 | 0.00 | 0.94 | 0.94 | 78 | 1015.1 |
| 20260903141602 | 18 | 0 | 0.0 | 1.6 | 0.00 | 0.94 | 0.94 | 77 | 1015.5 |
| 20260903140057 | 17 | 0 | 0.0 | 1.6 | 0.00 | 0.94 | 0.94 | 77 | 1015.5 |
| 20260903134606 | 17 | 0 | 0.0 | 0.0 | 0.00 | 0.97 | 0.94 | 78 | 1015.5 |
| 20260903133104 | 17 | 0 | 0.0 | 1.6 | 0.00 | 0.97 | 0.94 | 78 | 1015.4 |
| 20260903131552 | 17 | 0 | 0.0 | 0.0 | 0.00 | 0.97 | 0.94 | 78 | 1015.5 |
| 20260903130100 | 17 | 0 | 0.0 | 1.6 | 0.00 | 0.97 | 0.94 | 78 | 1015.5 |
| 20260903124602 | 17 | 0 | 0.0 | 1.6 | 0.03 | 0.97 | 0.94 | 78 | 1015.8 |
| 20260903123052 | 17 | 0 | 0.0 | 0.0 | 0.05 | 0.97 | 0.94 | 79 | 1015.9 |
| 20260903121601 | 17 | 0 | 0.0 | 1.6 | 0.05 | 0.97 | 0.94 | 79 | 1016.1 |
| 20260903120057 | 17 | 0 | 0.0 | 0.0 | 0.10 | 0.97 | 0.94 | 79 | 1016.4 |
| 20260903114552 | 17 | 0 | 0.0 | 0.0 | 0.10 | 0.94 | 0.91 | 79 | 1016.5 |
| 20260903113101 | 17 | 0 | 0.0 | 0.0 | 0.15 | 0.91 | 0.89 | 79 | 1016.4 |
| 20260903111551 | 16 | 0 | 0.0 | 0.0 | 0.36 | 0.91 | 0.89 | 80 | 1016.5 |
| 20260903110057 | 16 | 0 | 0.0 | 1.6 | 0.33 | 0.86 | 0.84 | 80 | 1016.6 |
| 20260903104558 | 16 | 0 | 0.0 | 1.6 | 0.41 | 0.84 | 0.81 | 80 | 1016.5 |
| 20260903103103 | 16 | 0 | 0.0 | 3.2 | 0.43 | 0.76 | 0.74 | 81 | 1016.2 |
| 20260903101600 | 16 | 0 | 0.0 | 3.2 | 0.23 | 0.56 | 0.53 | 81 | 1016.7 |
| 20260903100049 | 16 | 0 | 0.0 | 0.0 | 0.25 | 0.53 | 0.51 | 82 | 1016.4 |
| 20260903094611 | 16 | 0 | 0.0 | 1.6 | 0.18 | 0.43 | 0.41 | 83 | 1016.6 |
| 20260903093104 | 17 | 294 | 0.0 | 1.6 | 0.30 | 0.33 | 0.30 | 84 | 1016.8 |
| 20260903091600 | 17 | 0 | 0.0 | 3.2 | 0.30 | 0.33 | 0.30 | 84 | 1016.7 |
| 20260903090053 | 17 | 0 | 0.0 | 3.2 | 0.25 | 0.28 | 0.25 | 85 | 1017.0 |
| 20260903084604 | 17 | 0 | 0.0 | 3.2 | 0.23 | 0.25 | 0.23 | 85 | 1016.8 |
| 20260903083106 | 17 | 0 | 0.0 | 1.6 | 0.00 | 0.03 | 0.00 | 84 | 1016.6 |
| 20260903081602 | 17 | 0 | 0.0 | 1.6 | 0.00 | 0.03 | 0.00 | 83 | 1016.5 |
| 20260903080059 | 17 | 0 | 0.0 | 1.6 | 0.00 | 0.03 | 0.00 | 83 | 1017.0 |
| 20260903074559 | 17 | 0 | 0.0 | 3.2 | 0.00 | 0.03 | 0.00 | 83 | 1017.2 |
| 20260903073115 | 17 | 0 | 0.0 | 1.6 | 0.00 | 0.03 | 0.00 | 83 | 1017.1 |
| 20260903071559 | 17 | 181 | 0.0 | 3.2 | 0.00 | 0.03 | 0.00 | 83 | 1017.3 |
| 20260903070103 | 17 | 0 | 0.0 | 3.2 | 0.00 | 0.03 | 0.00 | 83 | 1017.6 |
| 20260903064556 | 17 | 0 | 0.0 | 3.2 | 0.00 | 0.03 | 0.00 | 84 | 1018.3 |
| 20260903063125 | 17 | 0 | 0.0 | 1.6 | 0.00 | 0.03 | 0.00 | 84 | 1018.5 |
| 20260903061547 | 17 | 0 | 0.0 | 1.6 | 0.00 | 0.03 | 0.00 | 85 | 1019.0 |
| 20260903060059 | 17 | 0 | 0.0 | 1.6 | 0.00 | 0.03 | 0.00 | 86 | 1019.4 |
| 20260903054553 | 17 | 0 | 0.0 | 1.6 | 0.00 | 0.03 | 0.00 | 85 | 1019.4 |
| 20260903053056 | 17 | 0 | 0.0 | 1.6 | 0.00 | 0.03 | 0.00 | 85 | 1019.3 |
| 20260903051551 | 17 | 0 | 0.0 | 1.6 | 0.00 | 0.03 | 0.00 | 85 | 1019.5 |